Location: Newark
(52.2090°N, 4.1550°W)
Time: 03:23:20
(UTC+00:00)

Transit 2A - Pass Details

Date: 26 October 2019
Orbit: 601 x 957 km, 66.7° (Epoch: 12 November)

Event Time Altitude Azimuth Distance (km) Brightness Sun altitude
Rises 20:22:28 0° 259° (W) 3,196 10.0 -31.3°
Reaches altitude 10° 20:25:18 10° 272° (W) 2,209 9.2 -31.7°
Maximum altitude 20:29:27 26° 328° (NNW) 1,348 7.7 -32.2°
Enters shadow 20:29:57 25° 339° (NNW) 1,357 7.6 -32.3°
